Weather History for Grand Rapids, MN

Change the Weather History Date:

Wednesday, February 12, 2014

  Actual Average Record
Temperature  
Mean Temperature 4 °F -  
Max Temperature 12 °F 23 °F 56 °F (1921)
Min Temperature -4 °F 0 °F -35 °F (1936)
Degree Days  
Heating Degree Days 61    
Moisture  
Dew Point -3 °F    
Average Humidity 65    
Maximum Humidity 92    
Minimum Humidity 29    
Precipitation  
Precipitation 0.00 in - - ()
Sea Level Pressure  
Sea Level Pressure 29.93 in    
Wind  
Wind Speed 6 mph (WNW)    
Max Wind Speed 17 mph    
Max Gust Speed 21 mph    
Visibility 9 miles    
Events      
Averages and records for this station are not official NWS values.
T = Trace of Precipitation, MM = Missing Value Source: NWS Daily Summary

Daily Weather History Graph

Daily Weather History Graph

Search for Another Location

Airport:

Trip Planner

Search our weather history database for the weather conditions in past years. The results will help you decide how hot, cold, wet, or windy it might be!

Date:

Astronomy

Feb. 12, 2014 Rise Set
Actual Time 7:23 AM CST 5:33 PM CST
Civil Twilight 6:51 AM CST 6:05 PM CST
Nautical Twilight 6:16 AM CST 6:41 PM CST
Astronomical Twilight 5:40 AM CST 7:16 PM CST
Moon 3:45 PM CST (2/12) 5:44 AM CST (2/12)
Length of Visible Light 11h 13m
Length of Day
10h 09m
Waxing Gibbous, 95% of the Moon is Illuminated
Feb 12
Waxing Gibbous
Feb 14
Full
Feb 22
Last Quarter
Mar 1
New
Mar 8
First Quarter

Hourly Weather History & Observations

Time (CST) Temp. Windchill Dew Point Humidity Pressure Visibility Wind Dir Wind Speed Gust Speed Precip Events Conditions
12:15 AM 10.4 °F -1.5 °F 6.8 °F 85% 29.90 in 10.0 mi SSW 8.1 mph - N/A   Overcast
12:35 AM 10.4 °F -0.4 °F 6.8 °F 85% 29.91 in 10.0 mi SSW 6.9 mph - N/A   Overcast
12:55 AM 10.4 °F -0.4 °F 8.6 °F 92% 29.91 in 10.0 mi SSW 6.9 mph - N/A   Overcast
1:15 AM 12.2 °F 4.3 °F 8.6 °F 85% 29.91 in 10.0 mi SSW 4.6 mph - N/A   Overcast
1:35 AM 12.2 °F 4.3 °F 8.6 °F 85% 29.92 in 9.0 mi SSW 4.6 mph - N/A   Overcast
1:55 AM 12.2 °F 2.9 °F 8.6 °F 85% 29.92 in 7.0 mi SSW 5.8 mph - N/A   Overcast
2:15 AM 12.2 °F 4.3 °F 8.6 °F 85% 29.93 in 5.0 mi SSW 4.6 mph - N/A   Overcast
2:35 AM 12.2 °F 4.3 °F 8.6 °F 85% 29.94 in 8.0 mi SSW 4.6 mph - N/A   Overcast
2:55 AM 12.2 °F 4.3 °F 8.6 °F 85% 29.94 in 10.0 mi SW 4.6 mph - N/A   Overcast
3:15 AM 12.2 °F 6.1 °F 10.4 °F 92% 29.94 in 8.0 mi WSW 3.5 mph - N/A   Overcast
3:35 AM 12.2 °F 2.9 °F 10.4 °F 92% 29.95 in 5.0 mi West 5.8 mph - N/A   Overcast
3:55 AM 12.2 °F 4.3 °F 10.4 °F 92% 29.95 in 6.0 mi West 4.6 mph - N/A   Overcast
4:15 AM 12.2 °F -3.1 °F 8.6 °F 85% 29.97 in 5.0 mi WNW 13.8 mph 18.4 mph N/A   Overcast
4:35 AM 10.4 °F -6.6 °F 5.0 °F 79% 29.98 in 10.0 mi NW 16.1 mph - N/A   Mostly Cloudy
4:55 AM 6.8 °F -11.8 °F 1.4 °F 79% 30.00 in 10.0 mi NW 17.3 mph - N/A   Partly Cloudy
5:15 AM 3.2 °F -13.9 °F -0.4 °F 85% 30.01 in 10.0 mi NW 12.7 mph 20.7 mph N/A   Clear
5:35 AM 3.2 °F -14.6 °F -2.2 °F 78% 30.01 in 10.0 mi NW 13.8 mph - N/A   Clear
5:55 AM 1.4 °F -15.3 °F -4.0 °F 78% 30.03 in 10.0 mi NW 11.5 mph - N/A   Clear
6:15 AM 1.4 °F -12.5 °F -4.0 °F 78% 30.02 in 10.0 mi NW 8.1 mph - N/A   Clear
6:35 AM -0.4 °F -12.0 °F -5.8 °F 78% 30.02 in 10.0 mi WNW 5.8 mph - N/A   Clear
6:55 AM -2.2 °F -20.7 °F -7.6 °F 78% 30.03 in 10.0 mi NW 12.7 mph - N/A   Clear
7:15 AM -2.2 °F -12.5 °F -5.8 °F 85% 30.02 in 9.0 mi West 4.6 mph - N/A   Clear
7:35 AM -4.0 °F -17.8 °F -7.6 °F 85% 30.04 in 6.0 mi WNW 6.9 mph - N/A   Clear
7:55 AM -4.0 °F -17.8 °F -7.6 °F 85% 30.04 in 4.0 mi WNW 6.9 mph - N/A   Clear
8:15 AM -4.0 °F -17.8 °F -7.6 °F 85% 30.04 in 6.0 mi WNW 6.9 mph - N/A   Clear
8:35 AM -4.0 °F -19.0 °F -7.6 °F 85% 30.04 in 10.0 mi WNW 8.1 mph - N/A   Clear
8:55 AM -2.2 °F -15.6 °F -7.6 °F 78% 30.04 in 10.0 mi NW 6.9 mph - N/A   Clear
9:15 AM -2.2 °F -18.0 °F -7.6 °F 78% 30.05 in 10.0 mi NW 9.2 mph - N/A   Clear
9:35 AM -2.2 °F -16.8 °F -7.6 °F 78% 30.05 in 10.0 mi NW 8.1 mph - N/A   Clear
9:55 AM -0.4 °F -12.0 °F -7.6 °F 72% 30.05 in 10.0 mi NW 5.8 mph - N/A   Mostly Cloudy
10:15 AM 1.4 °F -12.5 °F -7.6 °F 66% 30.05 in 10.0 mi NW 8.1 mph - N/A   Overcast
10:35 AM 1.4 °F -11.3 °F -7.6 °F 66% 30.05 in 10.0 mi NW 6.9 mph - N/A   Overcast
10:55 AM 1.4 °F -8.3 °F -7.6 °F 66% 30.04 in 10.0 mi NW 4.6 mph - N/A   Overcast
11:15 AM 3.2 °F -6.2 °F -7.6 °F 61% 30.04 in 10.0 mi NW 4.6 mph - N/A   Overcast
11:35 AM 3.2 °F -6.2 °F -7.6 °F 61% 30.03 in 10.0 mi NNW 4.6 mph - N/A   Overcast
11:55 AM 3.2 °F -4.2 °F -7.6 °F 61% 30.02 in 10.0 mi WNW 3.5 mph - N/A   Overcast
12:15 PM 5.0 °F -5.6 °F -7.6 °F 56% 30.01 in 10.0 mi North 5.8 mph - N/A   Scattered Clouds
12:35 PM 6.8 °F -4.8 °F -5.8 °F 56% 30.01 in 10.0 mi NNW 6.9 mph - N/A   Clear
12:55 PM 6.8 °F -0.1 °F -7.6 °F 52% 30.00 in 10.0 mi West 3.5 mph - N/A   Clear
1:15 PM 6.8 °F -0.1 °F -7.6 °F 52% 29.99 in 10.0 mi West 3.5 mph - N/A   Clear
1:35 PM 8.6 °F -3.7 °F -7.6 °F 48% 29.98 in 10.0 mi WNW 8.1 mph - N/A   Clear
1:55 PM 8.6 °F 0.1 °F -5.8 °F 52% 29.96 in 10.0 mi North 4.6 mph - N/A   Partly Cloudy
2:15 PM 10.4 °F - -4.0 °F 52% 29.95 in 10.0 mi Calm Calm - N/A   Clear
2:35 PM 8.6 °F -1.3 °F -7.6 °F 48% 29.94 in 10.0 mi West 5.8 mph - N/A   Clear
2:55 PM 10.4 °F 2.2 °F -5.8 °F 48% 29.93 in 10.0 mi NNW 4.6 mph - N/A   Clear
3:15 PM 10.4 °F 4.0 °F -5.8 °F 48% 29.92 in 10.0 mi North 3.5 mph - N/A   Clear
3:35 PM 10.4 °F 4.0 °F -5.8 °F 48% 29.92 in 10.0 mi North 3.5 mph - N/A   Clear
3:55 PM 10.4 °F - -5.8 °F 48% 29.91 in 10.0 mi Calm Calm - N/A   Clear
4:15 PM 10.4 °F 4.0 °F -5.8 °F 48% 29.91 in 10.0 mi NNW 3.5 mph - N/A   Clear
4:35 PM 10.4 °F - -5.8 °F 48% 29.91 in 10.0 mi Calm Calm - N/A   Clear
4:55 PM 10.4 °F - -5.8 °F 48% 29.90 in 10.0 mi Calm Calm - N/A   Clear
5:15 PM 8.6 °F - -5.8 °F 52% 29.89 in 10.0 mi Calm Calm - N/A   Clear
5:35 PM 10.4 °F - -5.8 °F 48% 29.89 in 10.0 mi Calm Calm - N/A   Partly Cloudy
5:55 PM 10.4 °F - -5.8 °F 48% 29.88 in 10.0 mi Calm Calm - N/A   Clear
6:15 PM 8.6 °F - -7.6 °F 48% 29.87 in 10.0 mi Calm Calm - N/A   Clear
6:35 PM 8.6 °F - -7.6 °F 48% 29.87 in 10.0 mi Calm Calm - N/A   Clear
6:55 PM 8.6 °F 2.0 °F -5.8 °F 52% 29.87 in 10.0 mi East 3.5 mph - N/A   Clear
7:15 PM 8.6 °F 2.0 °F -5.8 °F 52% 29.85 in 10.0 mi East 3.5 mph - N/A   Clear
7:35 PM 8.6 °F 2.0 °F -7.6 °F 48% 29.85 in 10.0 mi SE 3.5 mph - N/A   Clear
7:55 PM 8.6 °F 2.0 °F -7.6 °F 48% 29.84 in 10.0 mi ESE 3.5 mph - N/A   Partly Cloudy
8:15 PM 8.6 °F 0.1 °F -7.6 °F 48% 29.83 in 10.0 mi ESE 4.6 mph - N/A   Clear
8:35 PM 8.6 °F 0.1 °F -7.6 °F 48% 29.82 in 10.0 mi ESE 4.6 mph - N/A   Scattered Clouds
8:55 PM 8.6 °F -1.3 °F -5.8 °F 52% 29.79 in 10.0 mi ESE 5.8 mph - N/A   Mostly Cloudy
9:15 PM 8.6 °F -2.6 °F -5.8 °F 52% 29.78 in 10.0 mi ESE 6.9 mph - N/A   Mostly Cloudy
9:35 PM 8.6 °F -3.7 °F -7.6 °F 48% 29.76 in 10.0 mi ESE 8.1 mph - N/A   Mostly Cloudy
9:55 PM 10.4 °F -0.4 °F -5.8 °F 48% 29.75 in 10.0 mi ESE 6.9 mph - N/A   Scattered Clouds
10:15 PM 10.4 °F 0.8 °F -2.2 °F 57% 29.74 in 10.0 mi ESE 5.8 mph - N/A   Partly Cloudy
10:35 PM 10.4 °F 0.8 °F -9.4 °F 41% 29.73 in 10.0 mi ESE 5.8 mph - N/A   Scattered Clouds
10:55 PM 10.4 °F -2.4 °F -5.8 °F 48% 29.70 in 10.0 mi ESE 9.2 mph - N/A   Partly Cloudy
11:15 PM 10.4 °F -2.4 °F - N/A% 29.68 in 10.0 mi ESE 9.2 mph - N/A   Clear
11:35 PM 10.4 °F -3.3 °F -16.6 °F 29% 29.66 in 10.0 mi SE 10.4 mph 17.3 mph N/A   Scattered Clouds
11:55 PM 12.2 °F -2.5 °F 1.4 °F 62% 29.65 in 10.0 mi SE 12.7 mph 17.3 mph N/A   Overcast